This is the latest recevied weather packets stored in our database for station/object KY4LEX. If no packets are shown the sender has not sent any weather packets the latest 10 day(s).
| Time | Temp. | Humidity | Pressure | Rain* | Wind** | Luminosity | Snow |
|---|---|---|---|---|---|---|---|
| 1778011534 | 21.67° C | 53% | 1015 hPa | 0 mm | - | 148 W/m² | - |
| 1778011230 | 21.67° C | 53% | 1015.1 hPa | 0 mm | - | 251 W/m² | - |
| 1778010926 | 21.67° C | 53% | 1015.1 hPa | 0 mm | - | 191 W/m² | - |
| 1778010624 | 21.67° C | 53% | 1014.8 hPa | 0 mm | - | 139 W/m² | - |
| 1778010321 | 21.67° C | 53% | 1015.1 hPa | 0 mm | - | 118 W/m² | - |
| 1778010016 | 22.22° C | 53% | 1015.3 hPa | 0 mm | - | 164 W/m² | - |
| 1778009714 | 21.67° C | 53% | 1015.1 hPa | 0 mm | - | 153 W/m² | - |
| 1778009411 | 21.67° C | 52% | 1015.3 hPa | 0 mm | - | 121 W/m² | - |
| 1778009109 | 22.22° C | 52% | 1015.5 hPa | 0 mm | - | 201 W/m² | - |
| 1778008807 | 22.78° C | 52% | 1015.7 hPa | 0 mm | - | 189 W/m² | - |
| 1778008505 | 22.22° C | 51% | 1015.8 hPa | 0 mm | - | 535 W/m² | - |
| 1778008202 | 21.67° C | 51% | 1015.8 hPa | 0 mm | - | 265 W/m² | - |
| 1778007897 | 21.67° C | 52% | 1015.9 hPa | 0 mm | - | 223 W/m² | - |
| 1778007592 | 21.67° C | 53% | 1015.8 hPa | 0 mm | - | 188 W/m² | - |
| 1778007290 | 21.67° C | 52% | 1015.8 hPa | 0 mm | - | 184 W/m² | - |
| 1778006986 | 21.67° C | 54% | 1016 hPa | 0 mm | - | 206 W/m² | - |
| 1778006683 | 22.22° C | 53% | 1015.9 hPa | 0 mm | - | 191 W/m² | - |
| 1778006379 | 21.67° C | 52% | 1015.9 hPa | 0 mm | - | 213 W/m² | - |
| 1778006077 | 21.67° C | 54% | 1015.9 hPa | 0 mm | - | 225 W/m² | - |
| 1778005773 | 21.67° C | 53% | 1016 hPa | 0 mm | - | 206 W/m² | - |
| 1778005470 | 21.67° C | 54% | 1015.9 hPa | 0 mm | - | 240 W/m² | - |
| 1778005166 | 21.67° C | 52% | 1016 hPa | 0 mm | - | 246 W/m² | - |
| 1778004864 | 21.67° C | 53% | 1015.9 hPa | 0 mm | - | 254 W/m² | - |
| 1778004561 | 21.67° C | 54% | 1016 hPa | 0 mm | - | 233 W/m² | - |
| 1778004257 | 21.67° C | 54% | 1015.8 hPa | 0 mm | - | 288 W/m² | - |
* Rain latest hour (hover to see other rain measurements)
** Current wind speed in m/s (hover to see current wind gust speed)